Hatay Airport, Turkey

6:01 PM +03 on May 27, 2017 (GMT +0300)
Hatay Airport

Weather History for LTDA - March, 2014

Change the Weather History Date:

Monday, March 24, 2014

  Actual Average Record
Temperature  
Mean Temperature 66 °F -  
Max Temperature 82 °F - - ()
Min Temperature 50 °F - - ()
Cooling Degree Days 1    
Growing Degree Days 16 (Base 50)    
Moisture  
Dew Point 39 °F    
Average Humidity 44    
Maximum Humidity 66    
Minimum Humidity 15    
Precipitation  
Precipitation 0.00 in - - ()
Sea Level Pressure  
Sea Level Pressure 29.95 in    
Wind  
Wind Speed 4 mph ()    
Max Wind Speed 13 mph    
Max Gust Speed -    
T = Trace of Precipitation, MM = Missing Value Source: Averaged Metar Reports

Daily Weather History Graph

Daily Weather History Graph

Search for Another Location

Airport or City:

Trip Planner

Search our weather history database for the weather conditions in past years. The results will help you decide how hot, cold, wet, or windy it might be!

Date:

Astronomy

Mar. 24, 2014 Rise Set
Actual Time 5:33 AM EET 5:49 PM EET
Civil Twilight 5:07 AM EET 6:15 PM EET
Nautical Twilight 4:37 AM EET 6:45 PM EET
Astronomical Twilight 4:06 AM EET 7:16 PM EET
Moon 12:34 AM EET (3/24) 11:02 AM EET (3/24)
Length of Visible Light 13h 08m
Length of Day
12h 16m
Last Quarter, 46% of the Moon is Illuminated
Mar 24
Last Quarter
Mar 30
New
Apr 7
First Quarter
Apr 15
Full
Apr 22
Last Quarter

Hourly Weather History & Observations

Time (EET) Temp. Dew Point Humidity Pressure Visibility Wind Dir Wind Speed Gust Speed Precip Events Conditions
12:50 AM 53.6 °F 41.0 °F 62% 29.95 in - ENE 3.5 mph - N/A   Clear
1:50 AM 53.6 °F 41.0 °F 62% 29.98 in - North 2.3 mph - N/A   Clear
2:50 AM 53.6 °F 41.0 °F 62% 29.98 in - North 4.6 mph - N/A   Clear
3:50 AM 53.6 °F 39.2 °F 58% 29.98 in - North 3.5 mph - N/A   Clear
4:50 AM 50.0 °F 37.4 °F 62% 29.98 in - Variable 1.2 mph - N/A   Clear
5:50 AM 50.0 °F 39.2 °F 66% 29.98 in - ENE 6.9 mph - N/A   Clear
6:50 AM 53.6 °F 41.0 °F 62% 30.01 in - East 5.8 mph - N/A   Clear
7:50 AM 57.2 °F 42.8 °F 59% 30.01 in - NE 5.8 mph - N/A   Clear
8:50 AM 62.6 °F 42.8 °F 48% 30.01 in - NNE 4.6 mph - N/A   Clear
9:50 AM 68.0 °F 44.6 °F 43% 30.01 in - NE 4.6 mph - N/A   Clear
10:50 AM 73.4 °F 39.2 °F 29% 29.98 in - NE 5.8 mph - N/A   Clear
11:50 AM 77.0 °F 35.6 °F 22% 29.95 in - NE 5.8 mph - N/A   Clear
12:50 PM 78.8 °F 32.0 °F 18% 29.92 in - NE 5.8 mph - N/A   Clear
1:50 PM 82.4 °F 30.2 °F 15% 29.89 in - East 12.7 mph - N/A   Clear
2:50 PM 80.6 °F 30.2 °F 16% 29.89 in - ESE 10.4 mph - N/A   Clear
3:50 PM 80.6 °F 28.4 °F 15% 29.89 in - East 5.8 mph - N/A   Clear
4:50 PM 78.8 °F 35.6 °F 21% 29.89 in - SE 5.8 mph - N/A   Clear
5:50 PM 71.6 °F 39.2 °F 31% 29.89 in - SE 4.6 mph - N/A   Clear
6:50 PM 66.2 °F 44.6 °F 46% 29.92 in - SSW 6.9 mph - N/A   Clear
7:50 PM 64.4 °F 41.0 °F 42% 29.92 in - Calm Calm - N/A   Clear
8:50 PM 60.8 °F 42.8 °F 52% 29.92 in - North 3.5 mph - N/A   Clear
9:50 PM 60.8 °F 39.2 °F 45% 29.92 in - North 9.2 mph - N/A   Clear
10:50 PM 55.4 °F 41.0 °F 58% 29.92 in - North 3.5 mph - N/A   Clear
11:50 PM 55.4 °F 37.4 °F 51% 29.92 in - Variable 2.3 mph - N/A   Clear